Regional Weather Roundup
Issued by NWS San Diego, CA

Home | Current Version | Previous Version | Text Only | Print | Product List | Glossary On
Versions: 1 2 3 4 5 6 7 8 9 10 11 12 13 14 15 16 17 18 19 20 21 22 23 24 25 26 27
000
ASUS46 KSGX 220711
RWRSGX

SAN DIEGO HOURLY WEATHER ROUNDUP
NATIONAL WEATHER SERVICE SAN DIEGO CA
1200 AM PDT SUN APR 22 2018

NOTE: "FAIR" INDICATES FEW OR NO CLOUDS BELOW 12,000 FEET WITH NO
SIGNIFICANT WEATHER AND/OR OBSTRUCTIONS TO VISIBILITY.

CAZ042-043-060-061-PZZ750-775-220800-

GREATER SAN DIEGO AREA

CITY           SKY/WX    TMP DP  RH WIND       PRES   REMARKS
SAN DIEGO AP   PTCLDY    61  56  83 N3        29.99F
NATIONAL CITY    N/A     61  56  84 CALM      29.99F
CHULA VISTA      N/A     58  55  91 CALM      29.90F
IMPERIAL BEACH CLEAR     50  49  96 CALM      29.99F
BROWN FIELD    CLEAR     58  54  86 CALM      29.98F
MIRAMAR MCAS   CLEAR     55  47  74 CALM      29.98S
MONTGOMERY FLD CLEAR     59  51  75 CALM      29.99S
GILLESPIE FLD  FAIR      61  46  59 CALM      29.98S

$$

NORTH SAN DIEGO COUNTY

CITY           SKY/WX    TMP DP  RH WIND       PRES   REMARKS
CAMP PENDLETON CLEAR     51  49  92 CALM      29.97F
OCEANSIDE AP   CLEAR     53  51  93 CALM      29.97F
OCEANSIDE HBR    N/A     57  55  92 CALM      30.00F
VISTA            N/A     55  50  82 CALM      29.95F
CARLSBAD       CLEAR     60  54  80 CALM      29.97F
DEL MAR          N/A     57  55  92 CALM      30.00S
LA JOLLA SCRIP   N/A     58  56  92 CALM      29.98F
FALLBROOK        N/A     59  56  89 CALM      29.97F
ESCONDIDO        N/A     62  48  59 NW1       29.97F
SAN MARCOS       N/A     61  50  69 CALM      30.00F
POWAY            N/A     56  48  73 CALM      29.98S

$$

EAST SAN DIEGO COUNTY

CITY           SKY/WX    TMP DP  RH WIND       PRES   REMARKS
RAMONA         CLEAR     53  44  71 CALM      30.00F
SANTEE LAKES     N/A     57  47  67 CALM      29.97F
LA MESA          N/A     59  53  81 CALM      29.92F
JAMUL            N/A     55  48  75 CALM      29.98S
CAMPO            N/A     51  30  44 NE5       30.02S

$$

ORANGE COUNTY AND THE LOS ANGELES BASIN

CITY           SKY/WX    TMP DP  RH WIND       PRES   REMARKS
JOHN WAYNE AP  MOCLDY    61  54  77 CALM      29.97F
LAGUNA BEACH     N/A     56  53  91 CALM      29.93F
LAKE FOREST FR   N/A     62  44  52 CALM      29.84F
HUNTINGTON BCH   N/A     57  54  90 CALM      29.98F
LOS ALAMITOS   FAIR      58  54  84 CALM      29.97F
FULLERTON      MOCLDY    62  54  74 SE3       29.97S
LONG BEACH     MOCLDY    61  55  81 E5        29.97F
L.A. AP        MOCLDY    60  53  77 N3        29.98S
L.A. DOWNTOWN  MOCLDY    62  53  72 CALM      29.97S

$$

THE INLAND EMPIRE

CITY           SKY/WX    TMP DP  RH WIND       PRES   REMARKS
CORONA         MOCLDY    64  50  60 MISG        N/A
CHINO          MOCLDY    64  48  56 CALM      29.98F
ONTARIO        MOCLDY    67  43  41 CALM      29.98S
SAN BERNARDINO FAIR      69  33  26 CALM      30.00S
RIVERSIDE AP   MOCLDY    69  41  36 CALM      29.98S
MORENO VALLEY    N/A     65  39  38 CALM      28.12S
MARCH ARB      MOCLDY    61  33  35 SE3       30.00F
HORSETHIEF CYN   N/A     65  39  38 CALM      29.98F
PERRIS           N/A     65  49  54 S5        29.94F
HEMET EAST       N/A     65  29  26 CALM      29.93F
FRENCH VALLEY  FAIR      61  46  59 CALM      30.01F
TEMECULA         N/A     61  51  67 CALM      30.04F

$$

SAN BERNARDINO AND RIVERSIDE COUNTY MOUNTAINS

CITY           SKY/WX    TMP DP  RH WIND       PRES   REMARKS
BIG BEAR AP    MOCLDY    39  21  48 CALM      30.23S

$$

SOUTHERN DESERT INCLUDING THE COACHELLA VALLEY

CITY           SKY/WX    TMP DP  RH WIND       PRES   REMARKS
PALM SPRINGS   MOCLDY    81  31  16 NW7       29.92F
THOUSAND PALMS   N/A     80  31  17 NW3       29.87F
PALM DESERT      N/A     76  43  31 CALM        N/A
THERMAL        MOCLDY    68  39  34 CALM      29.87F
BLYTHE         PTCLDY    73  36  25 E8        29.89F
IMPERIAL AP    CLEAR     69  37  30 W6        29.86F
EL CENTRO NAS  CLEAR     69  30  23 W8        29.88F
YUMA AZ        CLEAR     69  40  34 SE3       29.88F
MEXICALI       CLEAR     72  39  30 S3        29.88F

$$

UPPER DESERT

CITY           SKY/WX    TMP DP  RH WIND       PRES   REMARKS
VICTORVILLE AP MOCLDY    64  25  22 S5        30.06S
HESPERIA         N/A     64  33  31 CALM      30.01S
APPLE VALLEY     N/A     53  39  58 CALM      30.03S
PALMDALE       MOCLDY    67  32  27 N3        30.05F
LANCASTER      MOCLDY    65  38  36 W12       30.04F
EDWARDS AFB    MOCLDY    63  34  34 SW8       30.01F
DAGGETT        CLOUDY    69  29  22 W8        30.00S
29 PALMS N     CLOUDY    69  20  15 NW7       30.06S
NEEDLES        CLOUDY    79  17  10 S3        29.91S

$$

REGIONAL REPORTS

CITY           SKY/WX    TMP DP  RH WIND       PRES   REMARKS
SANTA BARBARA  PTCLDY    55  52  89 CALM      29.95F
SANDBERG       MOCLDY    57  36  45 N17G28    30.14F
LAS VEGAS NV   PTCLDY    72  28  19 W6        29.98F
PHOENIX AZ     MOCLDY    75  37  25 E7        29.92S
TIJUANA        CLEAR     57  54  88 CALM      30.01F

$$

OFFSHORE ISLANDS

CITY           SKY/WX    TMP DP  RH WIND       PRES   REMARKS
CATALINA ARPT  MOCLDY    68  37  32 NW8       30.02F

$$

MARINE AND OFFSHORE BUOY REPORTS

STATION/POSITION SKY/WX   TEMP    WIND        PRES    VSBY  SWELL
                          AIR SEA DIR/SP/G                  HT/PER/DIR
                          (F)     (DEG/KT/KT) (MB)    (MI)  (FT/S/D)
TANNER BANKS               58 57              1015.6F
S CLEMENTE BASIN           61 62     CALM     1015.4F         5/170/16
SAN NICOLAS IS.               57                N/A           5/260/17
SO. S. ROSA ISLA           55 55  300/ 16/ 19 1014.5F         7/310/16
W. S. BARBARA CH              53  310/ 17/ 23 1014.2
M. S. BARBARA CH           56 56  240/  6/  8 1014.8
S. MONICA BASIN                   300/  2/  4 1014.1
S PEDRO CHANNEL               56                N/A           3/160/17
CMP PENDLETON NS              60                N/A           2/210/17
OCEANSIDE OFFSHR              60                N/A           2/190/15
TORREY PINES OTR              60                N/A           2/200/15
SAN DIEGO BAY                 62              1015.2F
POINT LOMA SOUTH              60                N/A           3/190/15

$$





USA.gov is the U.S. government's official web portal to all federal, state and local government web resources and services.